#timestamp,LO_Frequency,Hit,StdDev 
1503424815.9,286047001.0,N,1.6
1503424835.7,286047000.5,N,1.5
1503424855.5,286047000.3,N,1.5
1503424875.4,286047001.0,N,1.4
1503424895.2,286047000.8,N,1.4
1503424915.0,286046999.9,N,1.3
1503424915.9,286046999.9,N,1.3
1503424935.8,286046999.8,N,1.3
1503424955.6,286047000.3,N,1.2
1503424975.5,286047000.4,N,1.2
1503424995.3,286047000.5,N,1.2
1503425015.1,286047000.6,N,1.2
1503425035.9,286047000.9,N,1.1
1503425055.7,286047000.2,N,1.1
1503425075.6,286046999.8,N,1.1
1503425095.4,286047000.9,N,1.1
1503425115.2,286047000.1,N,1.1
1503425135.1,286047000.4,N,1.0
1503425136.0,286047000.4,N,1.0
1503425155.8,286047000.3,N,1.0
1503425175.7,286047000.3,N,0.8
1503425195.5,286047000.7,N,0.8
1503425215.3,286047000.3,N,0.8
1503425235.2,286047001.1,N,0.7
1503425255.0,286047000.8,N,0.5
1503425255.9,286047000.8,N,0.4
1503425275.8,286046999.0,N,0.5
1503425295.6,286046999.3,N,0.5
1503425315.4,286046998.5,Y,0.0
1503425335.3,286046998.4,P,1.0
1503425355.1,286046996.9,P,1.4
1503425375.8,286046999.2,N,1.2
1503425395.7,286046997.1,N,1.3
1503425415.5,286046999.3,N,1.2
1503425435.4,286046998.1,N,1.1
1503425455.2,286046996.5,Y,0.0
1503425475.0,286046998.8,P,0.2
1503425475.9,286046998.8,P,0.2
1503425495.8,286046998.7,P,0.1
1503425515.6,286047001.1,Y,0.0
1503425535.5,286047000.3,P,0.8
1503425555.3,286047000.5,N,0.8
1503425575.1,286047000.0,N,0.7
1503425595.9,286047000.6,N,0.7
1503425615.7,286047000.8,N,0.7
1503425635.6,286047000.3,N,0.6
1503425655.4,286047000.0,N,0.6
1503425675.2,286046999.9,N,0.6
1503425695.1,286047000.4,N,0.6
1503425696.0,286047000.4,N,0.5
1503425715.8,286046998.5,N,0.7
1503425735.6,286047000.7,N,0.7
1503425755.5,286047001.1,N,0.7
1503425775.3,286047001.1,N,0.7
1503425795.2,286046998.6,N,0.8
1503425815.9,286047000.3,N,0.8
1503425835.7,286047000.9,N,0.8
1503425855.6,286047000.6,N,0.8
1503425875.4,286047000.4,N,0.7
1503425895.3,286047000.3,N,0.7
1503425915.1,286047000.9,N,0.7
1503425916.0,286047000.9,N,0.7
1503425935.8,286047000.6,N,0.7
1503425955.7,286046998.6,N,0.8
1503425975.5,286047000.8,N,0.8
1503425995.3,286047000.9,N,0.8
1503426015.2,286047000.1,N,0.7
1503426035.0,286047002.4,Y,0.0
1503426035.9,286047002.4,P,1.1
1503426055.8,286047004.4,P,1.7
1503426075.6,286047004.4,N,1.7
1503426095.4,286047004.0,N,1.6
1503426115.3,286047001.7,N,1.5
1503426135.1,286047001.7,N,1.5
1503426155.9,286046999.8,N,1.7
1503426175.7,286047002.2,N,1.6
1503426195.5,286047000.0,N,1.7
1503426215.4,286047002.3,N,1.6
1503426235.2,286047002.4,N,1.5
1503426255.1,286047002.4,N,1.5
1503426256.0,286047002.4,N,1.4
1503426275.8,286047002.4,N,1.4
1503426295.6,286047001.7,N,1.3
1503426315.5,286047001.8,N,1.3
1503426335.3,286047001.5,N,1.3
1503426355.1,286047001.7,N,1.2
1503426375.9,286047001.6,N,1.2
1503426395.7,286047003.9,Y,0.0
1503426415.6,286046999.9,P,1.1
1503426435.4,286047000.4,N,0.9
1503426455.2,286047000.6,N,0.8
1503426475.1,286046998.6,N,1.1
1503426476.0,286046998.6,N,1.2
1503426495.8,286046999.7,N,1.1
1503426515.7,286047002.4,N,1.3
1503426535.5,286047001.8,N,1.3
1503426555.3,286047002.0,N,1.3
1503426575.2,286046999.8,N,1.3
1503426595.0,286047000.1,N,1.3
1503426595.9,286047000.1,N,1.2
1503426615.8,286047002.7,N,1.3
1503426635.6,286047002.8,N,1.4
1503426655.4,286047002.4,N,1.4
1503426675.3,286047002.8,N,1.4
1503426695.1,286047002.8,N,1.4
1503426715.9,286046999.7,N,1.4
1503426735.7,286047002.3,N,1.4
1503426755.5,286047002.6,N,1.4
1503426775.4,286047004.4,Y,0.0
1503426795.2,286047000.0,P,0.6
1503426815.0,286047000.9,N,0.5
1503426816.0,286047000.9,N,0.4
1503426835.8,286047000.8,N,0.4
1503426855.6,286047001.2,N,0.4
1503426875.5,286047000.6,N,0.4
1503426895.3,286047000.6,N,0.4
1503426915.1,286047000.4,N,0.4
1503426935.9,286047000.5,N,0.3
1503426955.7,286047000.0,N,0.4
1503426975.6,286047000.1,N,0.4
1503426995.4,286043085.0,Y,0.0
1503427015.2,286047002.8,P,1.1
1503427035.1,286047002.0,N,0.9
1503427036.0,286047002.0,N,0.8
1503427055.8,286047002.5,Y,0.0
1503427075.7,286047000.8,P,0.5
1503427095.5,286047000.7,N,0.5
1503427115.3,286046999.4,N,0.9
1503427135.2,286046996.5,Y,0.0
1503427155.0,286046996.6,P,2.0
1503427155.9,286046996.6,N,1.9
1503427175.8,286046999.3,N,1.8
1503427195.6,286046998.5,N,1.6
1503427215.4,286046998.7,N,1.5
1503427235.3,286046998.7,N,1.3
1503427255.1,286046999.5,N,1.3
1503427275.9,286046998.9,N,1.2
1503427295.7,286046999.3,N,1.2
1503427315.5,286046999.0,N,1.1
1503427335.4,286047001.2,N,1.3
1503427355.2,286047000.8,N,1.3
1503427375.1,286046998.1,N,1.3
1503427376.0,286046998.1,N,1.3
1503427395.8,286046998.2,N,1.3
1503427415.6,286046999.9,N,1.2
1503427435.5,286047001.2,N,1.3
1503427455.3,286047000.4,N,1.3
1503427475.1,286047001.0,N,1.3
1503427495.9,286047000.1,N,1.3
1503427515.7,286047002.6,N,1.5
1503427535.6,286047002.8,N,1.6
1503427555.4,286047002.2,N,1.6
1503427575.2,286047002.6,N,1.7
1503427595.1,286047002.2,N,1.7
1503427596.0,286047002.2,N,1.8
1503427615.8,286047002.5,N,1.8
1503427665.7,286047001.8,E,nan
1503427675.6,286047002.8,N,0.0
1503427695.4,286046999.8,P,1.5
1503427715.3,286047000.3,N,1.3
1503427735.1,286046998.2,N,1.7
1503427755.9,286047000.9,N,1.5
1503427775.7,286047000.4,N,1.4
1503427795.5,286047002.5,N,1.5
1503427815.4,286047000.1,N,1.4
1503427835.2,286047000.9,N,1.3
1503427855.0,286046998.1,N,1.5
1503427856.0,286046998.1,N,1.5
1503427875.8,286047001.0,N,1.5
1503427895.6,286047000.4,N,1.4
1503427915.5,286047000.7,N,1.4
1503427935.3,286047000.2,N,1.3
1503427955.1,286046999.8,N,1.3
1503427975.9,286047000.5,N,1.3
1503427995.7,286047002.1,N,1.3
1503428015.6,286046999.9,N,1.3
1503428035.4,286047000.5,N,1.2
1503428055.2,286047000.8,N,1.2
1503428075.1,286046998.3,N,1.3
1503428076.0,286046998.3,N,1.3
1503428095.8,286046998.4,N,1.3
1503428115.7,286046998.3,N,1.3
1503428135.5,286046998.8,N,1.3
1503428155.3,286046998.8,N,1.3
1503428175.2,286047001.1,N,1.3
1503428195.0,286047000.8,N,1.3
1503428195.9,286047000.8,N,1.3
1503428215.8,286047001.1,N,1.2
1503428235.6,286047001.0,N,1.2
1503428255.4,286047000.8,N,1.2
1503428275.3,286046999.9,N,1.2
1503428295.1,286047000.1,N,1.2
1503428315.9,286047000.3,N,1.2
1503428335.7,286047000.5,N,1.1
1503428355.5,286047000.7,N,1.1
1503428375.4,286046999.9,N,1.1
1503428395.2,286047000.1,N,1.0
